This is the latest recevied weather packets stored in our database for station/object KB3FKJ. If no packets are shown the sender has not sent any weather packets the latest 10 day(s).
| Time | Temp. | Humidity | Pressure | Rain* | Wind** | Luminosity | Snow |
|---|---|---|---|---|---|---|---|
| 1778001084 | 23.89° C | 46% | 1007.2 hPa | 0 mm | - | 112 W/m² | - |
| 1778000781 | 23.89° C | 47% | 1007.3 hPa | 0 mm | - | 170 W/m² | - |
| 1778000477 | 24.44° C | 43% | 1007.4 hPa | 0 mm | - | 206 W/m² | - |
| 1778000172 | 23.89° C | 43% | 1007.3 hPa | 0 mm | - | 203 W/m² | - |
| 1777999868 | 23.89° C | 48% | 1007.4 hPa | 0 mm | - | 167 W/m² | - |
| 1777999558 | 23.33° C | 47% | 1007.4 hPa | 0 mm | - | 148 W/m² | - |
| 1777999257 | 23.33° C | 46% | 1007.3 hPa | 0 mm | - | 159 W/m² | - |
| 1777998955 | 22.78° C | 45% | 1007.6 hPa | 0 mm | - | 187 W/m² | - |
| 1777998651 | 22.78° C | 45% | 1007.8 hPa | 0 mm | - | 195 W/m² | - |
| 1777998344 | 23.33° C | 44% | 1007.8 hPa | 0 mm | - | 191 W/m² | - |
| 1777998041 | 23.33° C | 48% | 1007.7 hPa | 0 mm | - | 190 W/m² | - |
| 1777997738 | 23.33° C | 49% | 1008 hPa | 0 mm | - | 190 W/m² | - |
| 1777997435 | 23.33° C | 47% | 1007.9 hPa | 0 mm | - | 166 W/m² | - |
| 1777997133 | 23.89° C | 46% | 1007.9 hPa | 0 mm | - | 146 W/m² | - |
| 1777996830 | 23.33° C | 47% | 1008 hPa | 0 mm | - | 153 W/m² | - |
| 1777996526 | 23.33° C | 46% | 1008.3 hPa | 0 mm | - | 129 W/m² | - |
| 1777996223 | 23.33° C | 49% | 1008.4 hPa | 0 mm | - | 135 W/m² | - |
| 1777995919 | 23.33° C | 48% | 1008.5 hPa | 0 mm | - | 153 W/m² | - |
| 1777995615 | 23.33° C | 49% | 1008.5 hPa | 0 mm | - | 143 W/m² | - |
| 1777995313 | 22.22° C | 55% | 1008.5 hPa | 0 mm | - | 204 W/m² | - |
| 1777995009 | 22.22° C | 49% | 1008.6 hPa | 0 mm | - | 90 W/m² | - |
| 1777994707 | 22.78° C | 48% | 1008.4 hPa | 0 mm | - | 128 W/m² | - |
| 1777994401 | 22.78° C | 49% | 1008.5 hPa | 0 mm | - | 144 W/m² | - |
| 1777994091 | 22.78° C | 49% | 1008.4 hPa | 0 mm | - | 160 W/m² | - |
| 1777993789 | 22.22° C | 49% | 1008.4 hPa | 0 mm | - | 170 W/m² | - |
* Rain latest hour (hover to see other rain measurements)
** Current wind speed in m/s (hover to see current wind gust speed)